Regional Weather Roundup
Issued by NWS Upton, NY

Current Version | Previous Version | Text Only | Print | Product List | Glossary On
Versions: 1 2 3 4 5 6 7 8 9 10 11 12 13 14 15 16 17 18 19 20 21 22 23 24 25 26 27 28 29 30 31 32 33 34 35 36 37 38 39 40 41 42 43 44 45 46 47 48 49 50
000
ASUS41 KOKX 311604
RWROKX

REGIONAL WEATHER ROUNDUP
NATIONAL WEATHER SERVICE NEW YORK NY
1200 PM EDT MON AUG 31 2015

NOTE: "FAIR" INDICATES FEW OR NO CLOUDS BELOW 12,000 FEET WITH NO
SIGNIFICANT WEATHER AND/OR OBSTRUCTIONS TO VISIBILITY.

NYZ071-072-176-178-NJZ106-104-311700-
NEW YORK CITY METRO AREA


CITY           SKY/WX    TMP DP  RH WIND       PRES   REMARKS
CENTRAL PARK   PTSUNNY   83  68  60 VRB3      30.06S
LAGUARDIA APRT PTSUNNY   83  66  56 W3        30.03S
KENNEDY INTL   CLOUDY    84  70  62 SW13      30.04F
NEWARK/LIBERTY CLOUDY    85  67  54 W5        30.04S
BRNX BOT. GARD   N/A     82  64  54 W8        30.03S
TETERBORO      PTSUNNY   85  64  49 W6        30.02S
$$

NYZ177-179-078>081-311700-
LONG ISLAND NEW YORK

CITY           SKY/WX    TMP DP  RH WIND       PRES   REMARKS
FARMINGDALE    CLOUDY    86  66  51 NW7       30.03S
ISLIP          CLOUDY    86  66  51 W7        30.01S
SHIRLEY        CLOUDY    86  66  51 W10       30.02F
WESTHAMPTON    CLOUDY    87  67  51 W7        30.02F HX  90
MONTAUK POINT    N/A     82  69  64 W7        30.01F
$$

NYZ052-065-067-311700-
HUDSON VALLEY

CITY           SKY/WX    TMP DP  RH WIND       PRES   REMARKS
WHITE PLAINS   PTSUNNY   85  65  51 NW12      30.03F
NEWBURGH       PTSUNNY   79  72  78 W5        30.05S
MONTGOMERY     PTSUNNY   82  71  69 SW7       30.03F
POUGHKEEPSIE   PTSUNNY   82  68  62 SW7       30.01S
ALBANY         PTSUNNY   82  67  60 W8        30.00F
$$

NJZ001-105-106-008-010-013-015-019>022-104-311700-
NEW JERSEY

CITY           SKY/WX    TMP DP  RH WIND       PRES   REMARKS
NEWARK/LIBERTY CLOUDY    85  67  54 W5        30.04S
TETERBORO      PTSUNNY   85  64  49 W6        30.02S
CALDWELL       PTSUNNY   83  67  58 SW3       30.04S
MORRISTOWN     CLOUDY    84  70  61 SW7       30.05S
SOMERVILLE     CLOUDY    83  67  58 VRB3      30.04S
SUSSEX         PTSUNNY   85  69  58 VRB5      30.04F
ANDOVER          N/A     83  70  64 SW5       30.06F
TRENTON        PTSUNNY   86  68  54 NW8       30.06R
MILLVILLE      PTSUNNY   83  69  62 SW7       30.08S
ATLANTIC CITY  MOSUNNY   86  68  54 W8        30.07F
WRIGHTSTOWN    PTSUNNY   84  72  67 VRB7      30.04S
TOMS RIVER     PTSUNNY   82  70  65 W5        30.07S
BELMAR         PTSUNNY   86  66  51 W7        30.06S
$$

PAZ047>061-062-071-311700-
EASTERN PENNSYLVANIA

CITY           SKY/WX    TMP DP  RH WIND       PRES   REMARKS
PHILADELPHIA   PTSUNNY   87  67  51 SW6       30.07S HX  90
ALLENTOWN      PTSUNNY   84  69  60 SW9       30.07S
SCRANTON       MOSUNNY   81  68  64 VRB5      30.08S
$$

CTZ002-004>006-009-010-012-RIZ004-006-007-MAZ004-011-015-311700-
SOUTHERN NEW ENGLAND
 IN CT

CITY           SKY/WX    TMP DP  RH WIND       PRES   REMARKS
BRADLEY INTL   PTSUNNY   83  68  60 W9        29.98F
HARTFORD       PTSUNNY   84  65  52 W9        29.99F
DANBURY        MOSUNNY   83  65  54 W8G18     30.04S
WTRBRY/OXFORD  SUNNY     81  64  57 NW12G17   30.05S
BRIDGEPORT     PTSUNNY   83  71  67 SW14      30.00F
MERIDEN        PTSUNNY   86  64  47 NW7       30.00F
NEW HAVEN      PTSUNNY   83  70  64 S10       30.00F
CHESTER        NOT AVBL
GROTON         PTSUNNY   79  72  79 SW12      29.98F
WILLIMANTIC    PTSUNNY   82  66  58 W6        30.00F

 IN RI

CITY           SKY/WX    TMP DP  RH WIND       PRES   REMARKS
PROVIDENCE     PTSUNNY   86  65  49 NW10      29.97F
BLOCK ISLAND   PTSUNNY   79  72  78 W13       30.00F
WESTERLY       MOSUNNY   82  69  64 SW10      29.99F

 IN MA

CITY           SKY/WX    TMP DP  RH WIND       PRES   REMARKS
BOSTON         MOSUNNY   86  63  45 W10       29.95F
WORCESTER      MOSUNNY   79  63  57 W14       30.02S
WESTFIELD      MOSUNNY   86  64  47 W15       29.98F
PROVINCETOWN     N/A     82  66  57 W8        29.96F
NANTUCKET      PTSUNNY   80  70  71 W14       29.98F
$$

ANZ330-335-338-340-345-350-353-355-311700-
COASTAL MARINE OBSERVATIONS


STATION/POSITION TIME  SKY/WX   TEMP    WIND        PRES    VSBY  WAVE
                                AIR SEA DIR/SP/G                  HT/PER
                 (UTC)          (F)     (DEG/KT/KT) (MB)    (MI)  (FT/S)
NY HARB ENTRANCE 1450            76 76  250/  8/  8 1017.1          3/11
4S FIRE IS       NOT AVBL
20S FIRE ISLAND  1450            75 74  250/ 12/ 14 1017.0          3/ 5
GREAT SOUTH BAY  NOT AVBL
23SW MTP         1550            74 72  270/ 14/ 16 1015.9          4/ 6
HUDSON CANYON    NOT AVBL
KINGS POINT      NOT AVBL
EXECUTION ROCKS  NOT AVBL
CENTRAL LI SOUND NOT AVBL
EASTERN LI SOUND NOT AVBL
ROBBINS REEF     NOT AVBL
$$


>>>>>>>>>>>>>>>>>>>>>>>>>>>> KEY <<<<<<<<<<<<<<<<<<<<<<<<<<<
>                                                          <
>     SKY/WX - SKY CONDITION/PRESENT WEATHER               <
>     TMP    - TEMPERATURE IN FAHRENHEIT                   <
>     DP     - DEWPOINT IN FAHRENHEIT                      <
>     RH     - RELATIVE HUMIDITY IN PERCENT                <
>     WIND   - DIRECTION AND SPEED IN MPH                  <
>     PRES   - MEAN SEA LEVEL PRESSURE IN INCHES OF HG     <
>     WCI    - WIND CHILL INDEX                            <
>     VSB    - VISIBILITY IN MILES                         <
>     HX     - HEAT INDEX                                  <
>     TC     - TEMPERATURE IN CELSIUS                      <
>     VRB    - VARIABLE WIND DIRECTION                     <
>                                                          <
>>>>>>>>>>>>>>>>>>>>>>>>>>>> KEY <<<<<<<<<<<<<<<<<<<<<<<<<<<





USA.gov is the U.S. government's official web portal to all federal, state and local government web resources and services.